Cancun, Mexico

6:25 AM EST on July 28, 2016 (GMT -0500)
Cancun

Weather History for 76590 - May, 2013

Change the Weather History Date:

Sunday, May 12, 2013

  Actual Average Record
Temperature  
Mean Temperature 82 °F -  
Max Temperature 86 °F 87 °F - ()
Min Temperature 78 °F 73 °F - ()
Cooling Degree Days 17    
Growing Degree Days 32 (Base 50)    
Moisture  
Dew Point 72 °F    
Average Humidity 73    
Maximum Humidity 83    
Minimum Humidity 62    
Precipitation  
Precipitation 0.00 in - - ()
Sea Level Pressure  
Sea Level Pressure 29.98 in    
Wind  
Wind Speed 9 mph ()    
Max Wind Speed 18 mph    
Max Gust Speed -    
Visibility 7.0 miles    
Events      
T = Trace of Precipitation, MM = Missing Value Source: Averaged Metar Reports

Daily Weather History Graph

Daily Weather History Graph

Search for Another Location

Airport or City:

Trip Planner

Search our weather history database for the weather conditions in past years. The results will help you decide how hot, cold, wet, or windy it might be!

Date:

Astronomy

May. 12, 2013 Rise Set
Actual Time 6:10 AM CDT 7:16 PM CDT
Civil Twilight 5:47 AM CDT 7:40 PM CDT
Nautical Twilight 5:19 AM CDT 8:08 PM CDT
Astronomical Twilight 4:50 AM CDT 8:37 PM CDT
Moon 8:10 AM CDT (5/12) 9:40 PM CDT (5/12)
Length of Visible Light 13h 53m
Length of Day
13h 06m
Waxing Crescent, 7% of the Moon is Illuminated
May 12
Waxing Crescent
May 17
First Quarter
May 24
Full
May 31
Last Quarter
Jun 8
New

Hourly Weather History & Observations

Time (CDT) Temp. Heat Index Dew Point Humidity Pressure Visibility Wind Dir Wind Speed Gust Speed Precip Events Conditions
12:45 AM 80.6 °F 84.6 °F 71.6 °F 74% 29.96 in 7.0 mi ESE 6.9 mph - N/A   Mostly Cloudy
1:44 AM 80.6 °F 85.4 °F 73.4 °F 79% 29.98 in 7.0 mi ESE 11.5 mph - N/A   Mostly Cloudy
2:43 AM 78.8 °F - 73.4 °F 83% 29.96 in 7.0 mi East 8.1 mph - N/A   Mostly Cloudy
3:46 AM 78.8 °F - 71.6 °F 78% 29.93 in 7.0 mi ESE 10.4 mph - N/A   Mostly Cloudy
4:45 AM 78.8 °F - 73.4 °F 83% 29.95 in 7.0 mi ESE 6.9 mph - N/A   Scattered Clouds
5:44 AM 78.8 °F - 73.4 °F 83% 29.95 in 7.0 mi ESE 9.2 mph - N/A   Partly Cloudy
6:43 AM 78.8 °F - 73.4 °F 83% 29.96 in 7.0 mi ESE 6.9 mph - N/A   Scattered Clouds
7:40 AM 82.4 °F 87.2 °F 71.6 °F 70% 29.99 in 7.0 mi East 11.5 mph - N/A   Mostly Cloudy
8:46 AM 82.4 °F 87.2 °F 71.6 °F 70% 30.00 in 7.0 mi ESE 13.8 mph - N/A   Overcast
9:45 AM 84.2 °F 90.9 °F 73.4 °F 70% 30.00 in 7.0 mi SE 12.7 mph - N/A   Mostly Cloudy
10:42 AM 84.2 °F 89.6 °F 71.6 °F 66% 30.00 in 7.0 mi SE 11.5 mph - N/A   Mostly Cloudy
11:42 AM 86.0 °F 91.8 °F 71.6 °F 62% 29.99 in 7.0 mi SE 17.3 mph - N/A   Mostly Cloudy
12:40 PM 86.0 °F 91.8 °F 71.6 °F 62% 29.99 in 7.0 mi SSE 11.5 mph - N/A   Mostly Cloudy
1:42 PM 86.0 °F 91.8 °F 71.6 °F 62% 29.97 in 7.0 mi SE 15.0 mph - N/A   Mostly Cloudy
2:49 PM 86.0 °F 91.8 °F 71.6 °F 62% 29.95 in 7.0 mi SE 18.4 mph - N/A   Mostly Cloudy
3:43 PM 86.0 °F 93.4 °F 73.4 °F 66% 29.94 in 7.0 mi SE 18.4 mph - N/A   Mostly Cloudy
4:44 PM 84.2 °F 89.6 °F 71.6 °F 66% 29.94 in 7.0 mi SE 10.4 mph - N/A   Mostly Cloudy
5:44 PM 82.4 °F 88.2 °F 73.4 °F 74% 29.94 in 7.0 mi East 9.2 mph - N/A   Mostly Cloudy
6:48 PM 80.6 °F 85.4 °F 73.4 °F 79% 29.97 in 7.0 mi ESE 9.2 mph - N/A   Mostly Cloudy
7:45 PM 80.6 °F 84.6 °F 71.6 °F 74% 29.98 in 7.0 mi East 4.6 mph - N/A   Scattered Clouds
8:41 PM 78.8 °F - 71.6 °F 78% 30.00 in 7.0 mi ENE 3.5 mph - N/A   Scattered Clouds
9:48 PM 78.8 °F - 73.4 °F 83% 30.01 in 7.0 mi East 6.9 mph - N/A   Scattered Clouds
10:45 PM 78.8 °F - 71.6 °F 78% 30.03 in 7.0 mi East 5.8 mph - N/A   Scattered Clouds
11:45 PM 78.8 °F - 71.6 °F 78% 30.03 in 7.0 mi East 5.8 mph - N/A   Scattered Clouds